| time (UTC) | temp F | wind direction | speed knots | gust knots | rain 1hr in | rain 24hr in | rain mn in | humidity % | barometer mb |
| 20260505101603 | 61 | 147 | 0.0 | 0.0 | 0.00 | 0.00 | 0.00 | 74 | 1025.2 |
| 20260505100059 | 62 | 0 | 0.0 | 0.0 | 0.00 | 0.00 | 0.00 | 73 | 1025.1 |
| 20260505094555 | 63 | 0 | 0.0 | 0.9 | 0.00 | 0.00 | 0.00 | 72 | 1025.0 |
| 20260505093107 | 64 | 0 | 0.0 | 1.7 | 0.00 | 0.00 | 0.00 | 71 | 1024.9 |
| 20260505091556 | 65 | 0 | 0.0 | 1.7 | 0.00 | 0.00 | 0.00 | 69 | 1024.9 |
| 20260505090056 | 65 | 0 | 0.0 | 1.7 | 0.00 | 0.00 | 0.00 | 67 | 1024.9 |
| 20260505084552 | 66 | 143 | 0.0 | 2.6 | 0.00 | 0.00 | 0.00 | 66 | 1024.8 |
| 20260505083103 | 67 | 255 | 0.0 | 3.5 | 0.00 | 0.00 | 0.00 | 67 | 1024.8 |
| 20260505080109 | 68 | 224 | 0.9 | 6.1 | 0.00 | 0.00 | 0.00 | 65 | 1024.7 |
| 20260505074557 | 69 | 236 | 0.0 | 4.3 | 0.00 | 0.00 | 0.00 | 63 | 1024.6 |
| 20260505073058 | 69 | 275 | 0.9 | 5.2 | 0.00 | 0.00 | 0.00 | 62 | 1024.6 |
| 20260505071617 | 69 | 253 | 0.9 | 4.3 | 0.00 | 0.00 | 0.00 | 60 | 1024.7 |
| 20260505070056 | 70 | 233 | 1.7 | 6.1 | 0.00 | 0.00 | 0.00 | 61 | 1024.6 |
| 20260505064556 | 71 | 286 | 2.6 | 7.0 | 0.00 | 0.00 | 0.00 | 59 | 1024.5 |
| 20260505063054 | 71 | 0 | 0.9 | 7.0 | 0.00 | 0.00 | 0.00 | 57 | 1024.5 |
| 20260505061557 | 72 | 0 | 0.9 | 5.2 | 0.00 | 0.00 | 0.00 | 57 | 1024.4 |
| 20260505060055 | 72 | 224 | 0.9 | 7.0 | 0.00 | 0.00 | 0.00 | 56 | 1024.5 |
| 20260505054557 | 72 | 254 | 1.7 | 5.2 | 0.00 | 0.00 | 0.00 | 56 | 1024.5 |
| 20260505053105 | 72 | 256 | 0.9 | 3.5 | 0.00 | 0.00 | 0.00 | 55 | 1024.4 |
| 20260505051552 | 71 | 46 | 0.0 | 2.6 | 0.00 | 0.00 | 0.00 | 53 | 1024.7 |
| 20260505041554 | 70 | 282 | 0.0 | 3.5 | 0.00 | 0.00 | 0.00 | 54 | 1025.5 |
| 20260505040055 | 70 | 0 | 0.0 | 2.6 | 0.00 | 0.00 | 0.00 | 55 | 1025.6 |
| 20260505034554 | 69 | 0 | 0.0 | 1.7 | 0.00 | 0.00 | 0.00 | 57 | 1025.9 |
| 20260505033110 | 67 | 0 | 0.9 | 2.6 | 0.00 | 0.00 | 0.00 | 59 | 1026.1 |
| 20260505031552 | 66 | 0 | 0.0 | 2.6 | 0.00 | 0.00 | 0.00 | 61 | 1026.2 |
| 20260505030058 | 66 | 29 | 0.0 | 2.6 | 0.00 | 0.00 | 0.00 | 63 | 1026.3 |
| 20260505024555 | 65 | 0 | 0.0 | 2.6 | 0.00 | 0.00 | 0.00 | 65 | 1026.4 |
| 20260505023057 | 64 | 0 | 0.0 | 1.7 | 0.00 | 0.00 | 0.00 | 66 | 1026.4 |
| 20260505021552 | 63 | 0 | 0.0 | 1.7 | 0.00 | 0.00 | 0.00 | 68 | 1026.4 |
| 20260505020056 | 62 | 0 | 0.0 | 2.6 | 0.00 | 0.00 | 0.00 | 69 | 1026.5 |
| 20260505014555 | 62 | 0 | 0.0 | 1.7 | 0.00 | 0.00 | 0.00 | 70 | 1026.5 |
| 20260505013053 | 61 | 0 | 0.0 | 0.9 | 0.00 | 0.00 | 0.00 | 72 | 1026.5 |
| 20260505011557 | 60 | 0 | 0.0 | 1.7 | 0.00 | 0.00 | 0.00 | 73 | 1026.5 |
| 20260505010058 | 59 | 55 | 0.0 | 3.5 | 0.00 | 0.00 | 0.00 | 75 | 1026.5 |
| 20260505004553 | 58 | 0 | 0.0 | 1.7 | 0.00 | 0.00 | 0.00 | 77 | 1026.6 |
| 20260505003059 | 56 | 355 | 0.0 | 2.6 | 0.00 | 0.00 | 0.00 | 80 | 1026.6 |
| 20260505001553 | 55 | 0 | 0.0 | 1.7 | 0.00 | 0.00 | 0.00 | 83 | 1026.4 |
| 20260505000111 | 54 | 0 | 0.0 | 0.9 | 0.00 | 0.00 | 0.00 | 86 | 1026.3 |
| 20260504234555 | 51 | 68 | 0.0 | 0.9 | 0.00 | 0.00 | 0.00 | 88 | 1026.0 |
| 20260504233054 | 50 | 0 | 0.0 | 0.9 | 0.00 | 0.00 | 0.00 | 89 | 1025.7 |
| 20260504231555 | 48 | 0 | 0.0 | 0.0 | 0.00 | 0.00 | 0.00 | 89 | 1025.6 |
| 20260504230056 | 49 | 0 | 0.0 | 0.0 | 0.00 | 0.00 | 0.00 | 88 | 1025.4 |
| 20260504224559 | 49 | 0 | 0.0 | 0.0 | 0.00 | 0.00 | 0.00 | 87 | 1025.2 |
| 20260504223109 | 50 | 0 | 0.0 | 0.0 | 0.00 | 0.00 | 0.00 | 87 | 1025.0 |
| 20260504221558 | 51 | 0 | 0.0 | 0.9 | 0.00 | 0.00 | 0.00 | 86 | 1025.0 |
| 20260504220114 | 51 | 0 | 0.0 | 1.7 | 0.00 | 0.00 | 0.00 | 86 | 1025.0 |
| 20260504214556 | 52 | 0 | 0.0 | 2.6 | 0.00 | 0.00 | 0.00 | 86 | 1024.6 |
| 20260504213101 | 52 | 88 | 0.0 | 3.5 | 0.00 | 0.00 | 0.00 | 87 | 1024.7 |
| 20260504211556 | 52 | 104 | 0.0 | 2.6 | 0.00 | 0.00 | 0.00 | 88 | 1024.9 |
| 20260504210054 | 51 | 0 | 0.0 | 2.6 | 0.00 | 0.00 | 0.00 | 89 | 1024.9 |
| 20260504204553 | 50 | 0 | 0.0 | 1.7 | 0.00 | 0.00 | 0.00 | 89 | 1024.9 |
| 20260504203055 | 49 | 0 | 0.0 | 0.0 | 0.00 | 0.00 | 0.00 | 88 | 1024.9 |
| 20260504201645 | 49 | 0 | 0.0 | 0.0 | 0.00 | 0.00 | 0.00 | 88 | 1024.9 |
| 20260504200100 | 49 | 0 | 0.0 | 0.0 | 0.00 | 0.00 | 0.00 | 87 | 1024.9 |
| 20260504194559 | 49 | 0 | 0.0 | 0.0 | 0.00 | 0.00 | 0.00 | 87 | 1025.0 |
| 20260504193506 | 50 | 0 | 0.0 | 0.9 | 0.00 | 0.00 | 0.00 | 86 | 1025.0 |
| 20260504191601 | 50 | 0 | 0.0 | 1.7 | 0.00 | 0.00 | 0.00 | 87 | 1025.1 |
| 20260504190108 | 50 | 0 | 0.0 | 0.9 | 0.00 | 0.00 | 0.00 | 87 | 1025.1 |
| 20260504184614 | 50 | 0 | 0.0 | 0.0 | 0.00 | 0.00 | 0.00 | 86 | 1025.2 |
| 20260504183101 | 51 | 0 | 0.0 | 0.9 | 0.00 | 0.00 | 0.00 | 86 | 1025.4 |
| 20260504181553 | 51 | 0 | 0.0 | 1.7 | 0.00 | 0.00 | 0.00 | 86 | 1025.2 |
| 20260504180054 | 51 | 0 | 0.0 | 1.7 | 0.00 | 0.00 | 0.00 | 86 | 1025.3 |
| 20260504174559 | 51 | 94 | 0.0 | 1.7 | 0.00 | 0.00 | 0.00 | 86 | 1025.4 |
| 20260504173056 | 51 | 0 | 0.0 | 0.9 | 0.00 | 0.00 | 0.00 | 86 | 1025.5 |
| 20260504171557 | 51 | 0 | 0.0 | 0.9 | 0.00 | 0.00 | 0.00 | 86 | 1025.5 |